Lid_Strength_Index
11 11 11 12 12 11 12 11 13 11 12 10 9 8 8 8 8 8 8 8 8 8 8 8 8 8 8 8 8 8 9 8 8 8 8 8 9 9 8 8 8 7 7 7
14 13 13 14 13 12 13 12 12 12 12 9 8 8 9 8 9 9 8 8 8 8 8 8 8 9 8 9 8 8 8 8 8 9 9 9 9 9 9 9 9 9 9 8
16 14 14 16 13 13 13 12 12 14 12 10 10 9 9 8 9 9 8 8 8 8 8 8 8 8 9 9 8 8 8 8 8 8 9 9 9 9 9 9 9 9 8 8
15 14 18 14 11 11 12 12 11 11 11 10 10 9 8 8 8 8 8 8 8 8 8 8 8 8 8 8 8 8 8 9 9 9 9 9 9 9 9 9 9 9 9 9
16 15 13 14 12 12 13 12 10 11 10 9 9 8 9 7 7 8 8 8 8 8 8 8 8 8 8 8 9 9 9 10 9 9 9 9 9 9 9 9 9 9 9 9
14 17 18 13 11 10 10 15 10 10 10 10 10 13 10 7 7 7 7 8 8 8 8 8 8 8 8 9 9 10 10 10 9 9 10 10 10 10 9 9 9 9 9 8
14 15 14 11 10 9 16 14 10 9 10 10 11 10 8 7 7 7 8 8 8 8 8 8 7 8 8 8 9 9 9 9 10 10 10 10 10 9 9 9 10 10 10 9
14 16 17 9 10 13 11 9 9 9 9 9 9 8 7 6 6 7 7 7 7 7 6 6 6 7 7 8 8 8 8 9 10 9 10 10 10 10 9 10 10 10 10 10
14 13 10 8 9 8 9 10 9 9 8 7 7 7 6 5 5 5 5 5 5 5 5 4 5 5 6 6 6 7 7 8 9 9 9 9 10 10 10 10 10 11 11 11
14 12 11 10 9 9 8 8 7 7 7 6 6 5 4 4 4 4 4 4 4 5 5 5 4 5 5 5 5 6 6 7 7 8 8 8 9 9 10 10 10 10 11 11
13 11 10 9 9 8 8 7 7 6 5 4 4 3 3 3 4 4 4 4 5 5 5 5 5 5 5 6 6 7 7 7 7 7 7 7 7 7 8 8 9 9 10 10
14 10 11 9 8 7 7 7 5 5 4 3 3 3 3 4 4 5 5 4 5 5 5 5 5 6 6 6 7 7 8 6 6 6 6 7 7 6 6 7 7 7 7 8
10 8 8 7 6 5 6 4 3 3 3 3 3 4 5 5 4 4 5 5 5 5 5 5 6 7 7 7 6 7 7 7 7 7 7 7 8 8 8 7 7 7 7 7
7 7 8 6 6 4 3 3 2 2 2 3 3 3 4 5 5 5 5 4 4 5 5 6 7 8 7 6 6 7 7 8 8 8 8 8 8 8 8 9 9 8 7 7
7 6 6 4 3 3 2 3 3 3 3 4 4 4 4 5 5 5 4 4 4 5 6 7 8 8 6 7 7 8 8 8 8 8 8 9 8 8 8 8 9 9 8 8
6 5 4 4 4 3 3 3 4 4 3 4 4 4 4 4 4 4 4 4 6 7 7 8 8 7 6 7 7 8 9 9 9 9 9 9 8 9 9 9 9 9 8 8
6 6 4 4 4 4 3 3 3 3 3 3 3 3 3 4 4 4 4 4 5 7 7 8 8 7 7 7 8 8 8 9 9 9 9 9 9 9 9 9 8 8 8 7
3 3 3 3 3 3 3 3 3 2 3 2 2 3 3 4 5 4 4 5 6 7 8 8 8 8 7 7 8 8 9 9 9 9 9 9 9 8 8 8 8 8 8 7
3 3 3 3 3 3 3 3 2 2 2 2 3 3 3 4 4 4 5 6 7 9 8 8 8 8 8 8 8 8 9 9 9 9 9 8 8 8 8 8 8 8 8 8
3 2 2 2 2 2 3 2 2 2 2 2 3 3 4 4 4 5 5 7 7 7 7 8 8 9 8 8 8 8 9 9 9 9 9 8 8 8 8 8 8 8 8 8
3 3 3 3 3 2 2 2 2 3 2 2 4 4 4 4 4 5 7 8 7 7 8 8 8 8 8 8 8 9 9 9 9 9 9 9 9 8 8 8 8 9 9 9
3 3 3 3 3 3 2 2 2 2 3 3 4 4 5 5 6 6 6 7 6 7 8 8 8 8 8 7 8 8 8 9 9 9 9 9 9 9 9 9 9 9 9 9
3 3 3 3 3 3 2 2 2 3 4 4 5 5 5 5 5 7 8 6 7 7 8 8 7 7 7 8 8 8 7 7 8 8 8 8 8 9 9 9 9 9 9 9
3 3 3 2 3 3 4 3 3 3 4 4 4 4 5 5 5 5 5 5 7 7 7 7 7 6 6 7 7 7 7 7 7 8 8 8 9 9 9 9 9 9 9 9
3 3 3 3 4 4 4 3 4 4 4 5 4 4 5 5 5 5 5 6 7 7 8 7 7 7 7 7 7 7 7 7 8 8 9 9 9 9 9 9 9 9 9 9
3 3 3 3 3 3 2 2 4 3 3 4 5 5 5 6 6 6 7 7 8 8 8 8 8 8 8 8 8 8 9 9 9 9 9 9 9 10 10 10 10 10 10 10
3 3 3 3 3 3 3 4 4 4 4 5 6 5 6 6 6 7 7 8 8 8 8 8 8 8 8 9 9 9 9 9 9 10 10 10 10 10 10 10 10 10 10 10